Location: *
(43.7000°S, 168.7000°W)
Time: 15:04:12
(UTC+00:00)

CZ-4 R/B - Pass Details

Date: 07 July 2020
Orbit: 533 x 597 km, 97.8° (Epoch: 04 August)

Event Time Altitude Azimuth Distance (km) Brightness Sun altitude
Rises 17:34:09 0° 18° (NNE) 2,777 5.5 -12.9°
Reaches altitude 10° 17:36:15 10° 19° (NNE) 1,897 4.6 -12.5°
Maximum altitude 17:40:22 77° 104° (ESE) 616 1.6 -11.8°
Drops below altitude 10° 17:44:38 10° 190° (S) 1,958 3.8 -11.1°
Sets 17:46:50 0° 191° (S) 2,874 4.7 -10.7°
